Weather Service Report


070 
ASUS45 KSLC 211310
RWRUT 

UTAH REGIONAL WEATHER ROUNDUP
NATIONAL WEATHER SERVICE SALT LAKE CITY UT
700 AM MDT SUN JUL 21 2019

UTZ001>011-023>025-211400-

NORTHERN UTAH
  
CITY           SKY/WX    TMP DP  RH WIND       PRES   REMARKS
BRIGHAM CITY   CLEAR     64  44  48 CALM      30.06R                  
HILL AFB       CLEAR     66  43  44 NE7       30.07R                  
LOGAN          CLEAR     55  47  74 CALM      30.10R                  
OGDEN          CLEAR     67  42  40 S9        30.05R                  
SALT LAKE CITY PTCLDY    72  50  45 SE6       30.02S                  
TOOELE VALLEY  CLEAR     66  45  45 S9        30.05R                  
WENDOVER       CLEAR     70  42  36 CALM      30.04R                  
HEBER CITY       N/A     50  41  71 CALM      30.18R                  
WEST JORDAN    CLEAR     65  47  51 S6        30.07R                  

$$

UTZ011>015-024>027-211400-

CENTRAL/NORTHEAST UTAH
  
CITY           SKY/WX    TMP DP  RH WIND       PRES   REMARKS
PROVO AIRPORT  CLEAR     62  49  62 CALM      30.09R                  
MOAB/CANYONLAN CLEAR     64  15  15 CALM      30.03R                  
DELTA          CLEAR     63  34  34 NE3       30.08S                  
PRICE          CLEAR     66  34  30 N8        30.14R                  
RICHFIELD      CLEAR     54  43  66 CALM      30.15R                  
ROOSEVELT      CLEAR     57  45  62 W5        30.15R                  
VERNAL         CLEAR     63  45  51 W5        30.12R                  

$$

UTZ013>016-019>022-027-211400-

SOUTHERN UTAH
  
CITY           SKY/WX    TMP DP  RH WIND       PRES   REMARKS
BRYCE CANYON   CLEAR     44  29  55 CALM      30.33R                  
CEDAR CITY     CLEAR     63  32  31 SE7       30.15R                  
MILFORD        CLEAR     56  31  38 S10       30.11R                  
ST GEORGE      SUNNY     72  33  24 S6        29.98R                  
KANAB          CLEAR     55  34  44 CALM      30.18R                  
BLANDING         N/A     63  28  26 NE8       30.23R                  

$$

REGIONAL REPORTS     COLORADO/ARIZONA
  
CITY           SKY/WX    TMP DP  RH WIND       PRES   REMARKS
CRAIG, CO      SUNNY     52  45  77 CALM      30.22R                  
GRAND JUNCTION CLEAR     66  42  41 E14       30.10R                  
RIFLE, CO      CLEAR     55  46  71 E3        30.19R                  
MONTROSE, CO   CLEAR     57  37  47 S6        30.21R                  
CORTEZ, CO     CLEAR     52  35  52 NE5       30.19R                  
COLORADO CITY    N/A     50  32  50 SE5       30.15R                  
PAGE, AZ       CLEAR     74  32  21 CALM      30.07R                  
GRAND CANYON   CLEAR     43  26  51 CALM      30.27R                  
KINGMAN, AZ    CLEAR     73  34  23 SE13      30.01R                  
FLAGSTAFF, AZ  CLEAR     52  30  43 CALM      30.30R                  

$$

REGIONAL REPORTS    NEVADA/IDAHO/WYOMING
  
CITY           SKY/WX    TMP DP  RH WIND       PRES   REMARKS
LAS VEGAS, NV  PTCLDY    81  35  19 S5        29.87R                  
ELY, NY        CLEAR     48  29  47 SW6       30.19R                  
ELKO, NV       CLEAR     57  37  47 CALM      30.10R                  
POCATELLO, ID  CLEAR     53  40  61 CALM      30.13R                  
BURLEY, ID     CLEAR     54  46  74 CALM      30.09R                  
EVANSTON, WY   CLEAR     58  38  47 E3        30.27R                  
ROCK SPRINGS,  CLEAR     60  34  37 CALM      30.25R                  
KEMMERER, WY   CLEAR     50  37  62 N9        30.30R                  

$$
  

Return to Home page


Western Regional Climate Center, wrcc@dri.edu